Voltar ao catálogo

SHIYAN 10

SY-10

AtivoCiênciaHEO
NORAD 49258·PAYLOAD·🇨🇳 China

Lançado Sep 27, 2021 de Xichang Satellite Launch Center

Loading…

Próximas Passagens (próximas 24 horas)

TLE

AtualizadoSource: Space-Track

Época: Sep 14, 2026, 03:12 UTC

1 49258U 21087A   26257.13376193  .00000665  00000-0  00000-0 0  9998
2 49258  63.1342 209.9958 6885712 269.7228  17.9820  2.00591926 36318

Acompanhe SHIYAN 10 em tempo real com AllMySat

Download on the App Store